STARLINK-32352, 61847

Orbit data source: Space-Track

STARLINK-32352, 61847 is a payload satellite owned by SpaceX/Seattle (US) in LEO that was launched on Thu, 07 Nov 2024 UTC via an FALCON 9 launch vehicle from the Air Force Eastern Test Range (AFETR). Payload-class satellites include a variety of spacecraft equipped with specific instruments for various scientific and technological missions. These include communications satellites like Starlink; space stations such as the ISS; scientific satellites like the Hubble; Earth observation satellites from companies like Planet Labs, Umbra, and HawkEye 360; GPS; miniature CubeSats for education and research; and military/defense satellites.

Loading next visibility...
Identifier
61847, 2024-202C
Orbit
LEO
Country
Flag of USUS
Related business
Manufacturer
SpaceX/Seattle
Mission
Operational Commercial Communications
Bus & Motor
STARLINK V2M, Unknown motor
Mass
730 kg wet, ~700 kg dry
Launch date (UTC)
2024-11-07 (2 years ago)
Launch vehicle
FALCON 9
Launch site
Air Force Eastern Test Range (AFETR)
Object type
Payload
Rocket body
Debris
Shape & HBR
Box + 2 Pan, 17.7 m
Radar Cross Section
33.884 m², Large (>1 m²)

Expand to show TLE details & history
Last TLE update: 16 hours ago

TLE from 16 hours ago
0 STARLINK-32352
1 61847U 24202C   26266.51879557  .00000772  00000-0  37584-4 0  9992
2 61847  43.0074 189.4545 0001479 257.0701 102.9985 15.27577859105720
Epoch: 2026-09-23T12:27Z
TLE epoch observation values (Epoch: 2026-09-23T12:27:03.937Z)
Latitude
-0.00005°
Longitude
0.31928°
Altitude
483.06 km
Speed
7.626 km/s
True Right ascension
12h 37m 49s
True Declination
0° 00' 00"
Sunlit
Object was in daylight at epoch
Visualization orbit readout
Latitude
Unknown
Longitude
Unknown
Altitude
Unknown
Speed
Unknown
Apparent Right ascension
Unknown
Apparent Declination
Unknown
Sunlit
N/A
Visualization observer readout
Local Sidereal Time
21:44:31
Azimuth
Unknown
Elevation
Unknown
Doppler factor
Unknown
Orbital elements
Apogee altitude
486.014 km
Perigee altitude
483.984 km
Semi-major axis
6,863.136 km
Eccentricity
0.00015
Inclination
43.0074°
RAAN
189.4545°
Arg. of periapsis
257.0701°
True anomaly
103.01501°
Mean anomaly
102.9985°
Eccentric anomaly
103.00676°
Mean motion
3.81733 °/min
Orbital period
94.31 mins
BSTAR
0.000037584
Loading maneuver chart data...
Computing Atmospheric mass density...
Loading historical data...
Loading historical data...
Loading historical data...
Loading historical data...
Loading historical data...
Loading historical data...
Loading historical data...

Documentation

Showing up to 5 results
|